[[{"header":{"parameterUnit":"m.s-1","parameterCategory":1,"la1":30.2991,"la2":30.254,"lo1":-89.0895,"lo2":-89.0444,"dy":0.0017,"dx":0.0017,"nx":28,"ny":28,"refTime":"2023-09-12T21:00:00:Z","depth":0,"parameterNumber":2,"parameterNumberName":"U-component_of_WINDS"},"data":[0,0,0,0,0,0,0,0,0,0,0,0,0,0,0,0,0,0,0,0,0,0,0,0,0,0,0,0,0,0,0,0,0,0,0,0,0,0,0,0,0,0,0,0,0,0,0,0,0,0,0,0,0,0,0,0,0,0,-1.4785,-1.4784,0,-1.4712,-1.4711,-1.471,-1.4649,-1.4648,-1.4647,-1.4647,-1.4572,-1.457,-1.4569,0,0,0,0,0,0,0,0,0,0,0,0,0,-1.487,-1.4869,-1.4785,-1.4784,-1.4783,-1.4712,-1.4711,-1.471,-1.4649,-1.4648,-1.4647,-1.4647,-1.4572,-1.4571,-1.4569,0,0,0,0,0,0,0,0,0,0,0,0,0,-1.4819,-1.4869,-1.4785,-1.4744,-1.474,-1.4712,-1.4711,-1.471,-1.4649,-1.4648,-1.4647,-1.4646,-1.4573,-1.4571,-1.4569,-1.4576,0,0,-1.4562,-1.4561,0,0,0,0,0,0,0,0,-1.4822,-1.4816,-1.4751,-1.4747,-1.4742,-1.4688,-1.4713,-1.4665,-1.4649,-1.4683,-1.4647,-1.4646,-1.4611,-1.4606,-1.4594,-1.4572,-1.4569,-1.4562,-1.4561,-1.456,-1.4559,0,0,0,0,0,0,0,-1.4826,-1.4819,-1.4756,-1.475,-1.4744,-1.4729,-1.472,-1.4704,-1.4654,-1.468,-1.4676,-1.4668,-1.4609,-1.4597,-1.4592,-1.4568,-1.4562,-1.456,-1.4559,-1.4558,-1.4546,-1.4547,0,0,0,0,0,0,-1.4836,-1.4822,-1.4758,-1.4754,-1.478,-1.4728,-1.4719,-1.4706,-1.4654,-1.4645,-1.4669,-1.4665,-1.4601,-1.4595,-1.4589,-1.4593,-1.456,-1.4558,-1.4557,-1.4545,-1.4546,-1.4547,0,0,0,0,0,0,-1.4838,-1.483,-1.4761,-1.4786,-1.4776,-1.4728,-1.4714,-1.4706,-1.4693,-1.4645,-1.4636,-1.4666,-1.46,-1.4592,-1.4579,-1.4589,-1.4557,-1.4555,-1.4544,-1.4546,-1.4547,-1.4601,0,0,0,0,0,0,-1.484,-1.4832,-1.4834,-1.4787,-1.4775,-1.4753,-1.4715,-1.4705,-1.469,-1.4685,-1.464,-1.4631,-1.4598,-1.4583,-1.4577,-1.4586,-1.4554,-1.4543,-1.4545,-1.4547,-1.4598,-1.4604,-1.4609,0,0,0,0,0,-1.4844,-1.4852,-1.4834,-1.4827,-1.4777,-1.4753,-1.4747,-1.4708,-1.4691,-1.4693,-1.4662,-1.4633,-1.459,-1.4582,-1.4575,-1.4584,-1.4542,-1.4544,-1.4546,-1.4596,-1.4603,-1.4609,0,0,0,0,0,0,-1.4902,-1.4845,-1.4825,-1.4819,-1.4791,-1.4743,-1.4744,-1.4718,-1.4694,-1.469,-1.4644,-1.4634,-1.4626,-1.4604,-1.4596,-1.4587,-1.4562,-1.4563,-1.4602,-1.4608,-1.4614,-1.4619,-1.4552,0,0,0,0,0,-1.4914,-1.4899,-1.4851,-1.485,-1.4837,-1.4793,-1.4781,-1.4754,-1.4724,-1.4712,-1.468,-1.4651,-1.4631,-1.4619,-1.4597,-1.4595,-1.4584,-1.4597,-1.4603,-1.4608,-1.4609,-1.4604,-1.461,-1.4554,-1.4554,-1.4554,0,0,-1.4939,-1.4906,-1.49,-1.4861,-1.4836,-1.4822,-1.4784,-1.477,-1.4759,-1.471,-1.4695,-1.4671,-1.4636,-1.4628,-1.4623,-1.4609,-1.4622,-1.461,-1.4615,-1.4613,-1.4607,-1.4612,-1.4617,-1.4556,-1.4555,-1.4555,0,0,-1.4976,-1.4951,-1.4947,-1.4923,-1.4886,-1.4857,-1.4856,-1.4811,-1.4793,-1.4778,-1.474,-1.4726,-1.4693,-1.4669,-1.4652,-1.468,-1.4652,-1.4675,-1.4703,-1.47,-1.4704,-1.4708,-1.4717,-1.472,-1.4676,-1.4676,-1.4676,0,-1.5012,-1.4988,-1.4948,-1.4936,-1.492,-1.4875,-1.487,-1.4849,-1.4807,-1.4796,-1.4782,-1.4738,-1.4711,-1.4697,-1.4703,-1.4692,-1.4689,-1.4679,-1.4707,-1.471,-1.4713,-1.4721,-1.4724,-1.4679,-1.4679,-1.4679,-1.4678,0,-1.5033,-1.5018,-1.5019,-1.4979,-1.4963,-1.4955,-1.4913,-1.4901,-1.4875,-1.4847,-1.4832,-1.4798,-1.4769,-1.4764,-1.4739,-1.4745,-1.4737,-1.4716,-1.4689,-1.4722,-1.4728,-1.4731,-1.4683,-1.4682,-1.4681,-1.4681,0,0,-1.5105,-1.5043,-1.5044,-1.5025,-1.4981,-1.4968,-1.4957,-1.4929,-1.4919,-1.4892,-1.4881,-1.4854,-1.4833,-1.4814,-1.4786,-1.4783,-1.4806,-1.4761,-1.476,-1.477,-1.4809,-1.4825,-1.4829,-1.4788,-1.4788,-1.4789,-1.4812,0,-1.5134,-1.5113,-1.5076,-1.5066,-1.505,-1.5007,-1.4998,-1.497,-1.4943,-1.4926,-1.4897,-1.4877,-1.4852,-1.484,-1.4836,-1.4805,-1.4813,-1.4802,-1.4777,-1.4776,-1.4785,-1.4833,-1.485,-1.4873,-1.4814,-1.4815,-1.4815,0,-1.5166,-1.514,-1.5129,-1.5085,-1.5077,-1.507,-1.504,-1.5024,-1.4991,-1.4972,-1.4951,-1.492,-1.4906,-1.4883,-1.4863,-1.4856,-1.4844,-1.4827,-1.4827,-1.4822,-1.4797,-1.4828,-1.488,-1.4883,-1.4819,-1.4819,-1.4818,0,-1.5217,-1.5181,-1.5169,-1.5154,-1.5103,-1.5099,-1.5077,-1.5043,-1.5028,-1.5002,-1.4991,-1.4964,-1.4949,-1.4929,-1.4891,-1.4878,-1.4875,-1.4849,-1.4857,-1.4858,-1.4858,-1.4858,-1.4907,-1.4852,-1.4852,-1.4852,-1.4852,0,-1.5253,-1.5248,-1.5191,-1.5184,-1.5176,-1.5134,-1.5127,-1.5101,-1.5071,-1.5058,-1.502,-1.5008,-1.496,-1.4942,-1.4913,-1.4899,-1.4893,-1.4877,-1.4869,-1.4879,-1.4881,-1.487,-1.4866,-1.4853,-1.4853,-1.4852,-1.4852,0,-1.5309,-1.5272,-1.5255,-1.5208,-1.5196,-1.5192,-1.5152,-1.5143,-1.5114,-1.5097,-1.5091,-1.5046,-1.5023,-1.4984,-1.495,-1.493,-1.4922,-1.491,-1.4933,-1.4928,-1.4939,-1.4938,-1.4981,-1.4984,-1.4929,-1.4929,-1.493,0,-1.5334,-1.5329,-1.5281,-1.5269,-1.5249,-1.523,-1.5214,-1.5172,-1.5157,-1.5119,-1.5114,-1.5088,-1.5065,-1.5031,-1.4995,-1.4968,-1.4954,-1.4971,-1.4949,-1.496,-1.4952,-1.4952,-1.4951,-1.4975,-1.4976,-1.4977,-1.4977,0,-1.5382,-1.5363,-1.5341,-1.5313,-1.5295,-1.5271,-1.5245,-1.5238,-1.519,-1.5175,-1.5151,-1.5133,-1.5098,-1.5072,-1.5041,-1.5018,-1.4989,-1.4984,-1.4985,-1.4995,-1.5008,-1.5,-1.4945,-1.4983,-1.4983,-1.4982,-1.4982,-1.4982,-1.5422,-1.5414,-1.5379,-1.5356,-1.5332,-1.5308,-1.5297,-1.5267,-1.5246,-1.5214,-1.5191,-1.5168,-1.5134,-1.5089,-1.5068,-1.5049,-1.5036,-1.5037,-1.5037,-1.5038,-1.5041,-1.5012,-1.5044,-1.5044,-1.5043,-1.5043,-1.5043,0,-1.5466,-1.5441,-1.542,-1.5385,-1.5367,-1.5342,-1.5311,-1.5298,-1.5278,-1.5249,-1.5227,-1.5199,-1.5174,-1.5136,-1.5108,-1.51,-1.5086,-1.5094,-1.5094,-1.5089,-1.5055,-1.5057,-1.5106,-1.5106,-1.5106,-1.5106,-1.5106,-1.5106,-1.5487,-1.5472,-1.545,-1.5423,-1.5398,-1.5375,-1.536,-1.5337,-1.5314,-1.5284,-1.5263,-1.5239,-1.5206,-1.5175,-1.515,-1.514,-1.5131,-1.5142,-1.5128,-1.5097,-1.5091,-1.5085,-1.5087,-1.5141,-1.5141,-1.5162,-1.5162,-1.5162]},{"header":{"parameterUnit":"m.s-1","parameterCategory":1,"la1":30.2991,"la2":30.254,"lo1":-89.0895,"lo2":-89.0444,"dy":0.0017,"dx":0.0017,"nx":28,"ny":28,"refTime":"2023-09-12T21:00:00:Z","depth":0,"parameterNumber":3,"parameterNumberName":"V-component_of_WINDS"},"data":[0,0,0,0,0,0,0,0,0,0,0,0,0,0,0,0,0,0,0,0,0,0,0,0,0,0,0,0,0,0,0,0,0,0,0,0,0,0,0,0,0,0,0,0,0,0,0,0,0,0,0,0,0,0,0,0,0,0,1.231,1.231,0,1.2242,1.2241,1.2241,1.225,1.2251,1.2252,1.2253,1.218,1.2177,1.2174,0,0,0,0,0,0,0,0,0,0,0,0,0,1.2445,1.2443,1.2311,1.231,1.2309,1.2242,1.2241,1.224,1.225,1.2251,1.2253,1.2254,1.2181,1.2177,1.2174,0,0,0,0,0,0,0,0,0,0,0,0,0,1.2383,1.2442,1.2311,1.2306,1.2305,1.2242,1.2241,1.224,1.225,1.2251,1.2253,1.2255,1.2182,1.2177,1.2173,1.2111,0,0,1.2159,1.2157,0,0,0,0,0,0,0,0,1.2386,1.2378,1.2307,1.2306,1.2305,1.2256,1.2262,1.2197,1.2249,1.227,1.2253,1.2255,1.2204,1.2197,1.2181,1.2107,1.2104,1.2159,1.2156,1.2154,1.2153,0,0,0,0,0,0,0,1.2391,1.2381,1.2283,1.2306,1.2304,1.2305,1.2298,1.2249,1.2228,1.2269,1.2269,1.2261,1.2203,1.2185,1.2179,1.2103,1.2159,1.2155,1.2152,1.215,1.1972,1.197,0,0,0,0,0,0,1.2397,1.2384,1.2286,1.2281,1.2351,1.2302,1.2294,1.227,1.2229,1.2224,1.226,1.2262,1.2192,1.2184,1.2176,1.2098,1.2154,1.215,1.2147,1.1974,1.1971,1.1969,0,0,0,0,0,0,1.24,1.2388,1.2288,1.2333,1.232,1.2297,1.2271,1.2268,1.225,1.2222,1.2218,1.2245,1.2193,1.2183,1.2126,1.2096,1.2148,1.2144,1.1976,1.1973,1.197,1.1942,0,0,0,0,0,0,1.2403,1.2389,1.2366,1.2332,1.2318,1.224,1.2269,1.2265,1.2242,1.2244,1.2207,1.2203,1.2194,1.2133,1.2122,1.209,1.214,1.1979,1.1975,1.1971,1.1946,1.1939,1.1932,0,0,0,0,0,1.2408,1.236,1.2365,1.2353,1.2289,1.2239,1.223,1.2222,1.224,1.2215,1.2197,1.2204,1.2102,1.2127,1.2115,1.2081,1.1981,1.1976,1.1971,1.1949,1.194,1.1933,0,0,0,0,0,0,1.239,1.2356,1.236,1.2301,1.2273,1.2241,1.221,1.2213,1.2179,1.2182,1.2172,1.2163,1.2105,1.2088,1.2118,1.2017,1.2043,1.2036,1.203,1.2022,1.2015,1.2019,1.2136,0,0,0,0,0,1.2379,1.2343,1.2315,1.2265,1.225,1.2233,1.221,1.2206,1.2176,1.2164,1.2142,1.2112,1.2073,1.2047,1.201,1.1944,1.1935,1.1915,1.1909,1.1903,1.1896,1.1857,1.1847,1.1954,1.1954,1.1954,0,0,1.2356,1.2333,1.231,1.226,1.2238,1.2198,1.2222,1.218,1.215,1.2157,1.2102,1.2085,1.2051,1.1989,1.196,1.1972,1.1865,1.1897,1.1893,1.1889,1.1851,1.1841,1.1832,1.1951,1.1952,1.1952,0,0,1.2293,1.2273,1.2228,1.2205,1.2172,1.216,1.2149,1.2117,1.2105,1.2051,1.2054,1.2018,1.1952,1.1926,1.1904,1.1831,1.1835,1.182,1.1784,1.1746,1.1738,1.173,1.17,1.169,1.1813,1.1813,1.1813,0,1.2267,1.2209,1.2204,1.216,1.2137,1.2144,1.2096,1.2074,1.203,1.2013,1.2028,1.1943,1.1921,1.1851,1.1833,1.1817,1.1802,1.1822,1.174,1.1732,1.1725,1.1696,1.1686,1.1811,1.1811,1.1812,1.1812,0,1.2178,1.2138,1.2105,1.2062,1.2036,1.1991,1.1977,1.195,1.1949,1.1935,1.1878,1.1851,1.1807,1.1791,1.179,1.1721,1.1729,1.1742,1.1767,1.1713,1.1685,1.1675,1.1809,1.1809,1.181,1.181,0,0,1.2099,1.2055,1.2042,1.2022,1.1985,1.1953,1.1908,1.1866,1.1842,1.1812,1.1771,1.1715,1.1726,1.1701,1.1697,1.1664,1.1604,1.168,1.1679,1.1664,1.1523,1.1511,1.1499,1.1608,1.1606,1.1604,1.1525,0,1.203,1.195,1.1944,1.1871,1.1832,1.1838,1.1798,1.1771,1.1757,1.172,1.1705,1.1664,1.1684,1.1668,1.1637,1.1618,1.1575,1.1624,1.1567,1.1565,1.1571,1.1485,1.1473,1.1399,1.1515,1.1513,1.1512,0,1.1938,1.1904,1.1828,1.1795,1.1779,1.1743,1.1703,1.1669,1.1638,1.163,1.1602,1.1602,1.1553,1.1583,1.1514,1.1547,1.1524,1.1511,1.1508,1.1499,1.1532,1.1471,1.1376,1.1363,1.1496,1.1497,1.1498,0,1.1883,1.182,1.1765,1.1748,1.171,1.1684,1.1666,1.1637,1.1611,1.1576,1.1559,1.1519,1.1496,1.1464,1.1452,1.1476,1.1383,1.1412,1.1372,1.1372,1.1349,1.135,1.1245,1.134,1.1341,1.1341,1.1341,0,1.1804,1.1756,1.174,1.1706,1.1652,1.1645,1.1591,1.1575,1.1548,1.151,1.1514,1.1477,1.1465,1.1426,1.1417,1.1359,1.135,1.134,1.1337,1.1337,1.1338,1.1319,1.1322,1.1338,1.1339,1.1339,1.134,0,1.1732,1.172,1.166,1.1629,1.162,1.1581,1.1554,1.152,1.1508,1.1459,1.1447,1.1426,1.138,1.1366,1.1311,1.1305,1.1236,1.124,1.1247,1.1245,1.1205,1.1207,1.1081,1.1063,1.1173,1.1172,1.1172,0,1.1681,1.1644,1.1609,1.1584,1.1565,1.1525,1.1499,1.1491,1.1464,1.1424,1.1395,1.135,1.1313,1.1239,1.1218,1.1176,1.1176,1.1135,1.117,1.117,1.1171,1.1172,1.1166,1.1127,1.1126,1.1125,1.1124,0,1.1589,1.1585,1.1548,1.1508,1.1477,1.1446,1.1415,1.1394,1.1381,1.135,1.1304,1.1275,1.1219,1.1173,1.113,1.111,1.1113,1.1114,1.1102,1.11,1.1103,1.1097,1.1225,1.1116,1.1117,1.1118,1.1118,1.1118,1.1524,1.149,1.146,1.1418,1.1394,1.1365,1.1331,1.1315,1.1276,1.123,1.1228,1.1176,1.1144,1.1086,1.1065,1.1023,1.1035,1.1018,1.1013,1.1008,1.1003,1.1114,1.1016,1.1016,1.1017,1.1017,1.1017,0,1.1429,1.141,1.1372,1.1328,1.1295,1.1304,1.127,1.1241,1.1196,1.1166,1.113,1.1076,1.1031,1.1007,1.0963,1.0934,1.0934,1.0922,1.0922,1.0916,1.0997,1.101,1.0922,1.0922,1.0922,1.0922,1.0922,1.0922,1.1375,1.1318,1.131,1.1241,1.1222,1.1172,1.1151,1.1124,1.11,1.1039,1.1002,1.0988,1.0959,1.0913,1.0871,1.0865,1.0847,1.0833,1.0827,1.0902,1.0911,1.092,1.0933,1.083,1.083,1.075,1.0749,1.0748]}]]